{"data":{"norad_id":65495,"intl_designator":"2025-198D","name":"STARLINK-34446","alt_names":[],"object_type":"PAYLOAD","status":"ACTIVE","operator":null,"country":"US","launch_date":"2025-09-05","launch_site_code":"AFETR","launch_vehicle":null,"mission":null,"orbit_class":"UNKNOWN","rcs_meters":null,"size_class":null,"mass_kg":null,"dimensions":null,"purposes":["comms"],"wikipedia_slug":null,"has_3d_model":false,"image_url":null,"decayed_at":null,"tle_current":{"epoch":"2026-09-20T22:20:11.962464Z","epoch_age_seconds":74794,"freshness":"FRESH","line1":"1 65495U 25198D   26263.93069401  .00023497  00000+0  70385-3 0  9995","line2":"2 65495  53.1580  81.9068 0000230 159.2674 200.8338 15.34423934 58548","mean_motion":15.34423934,"eccentricity":2.3e-5,"inclination_deg":53.158,"raan_deg":81.9068,"arg_perigee_deg":159.2674,"mean_anomaly_deg":200.8338,"bstar":0.00070385,"rev_number":5854,"period_min":93.846294240611,"perigee_km":462.47476655051,"apogee_km":462.78944192931,"semimajor_km":6840.7691042399,"source":"CELESTRAK","updated_at":"2026-09-21T09:00:35.641509Z"}}}